This demonstration page uses our WeatherBlox Daily Observations layout. Learn more.

Left ArrowRight Arrow

39.01783, -85.05884

Hourly Observations for October 30, 2015

Temp ( °F °C ) Dew Point ( °F °C ) Humidity (%) Winds ( mph kmh ) Pressure ( in mb ) Visibility ( mi km ) Precip ( " mm )
12:52 am 00:52 Cloudy 44 6.7 35 1.7 71 71 WNW 7 11 30.00 1016 10 16 N/A
1:52 am 01:52 Cloudy 45 7.2 35 1.7 68 68 WNW 7 11 30.00 1016 10 16 N/A
2:52 am 02:52 Cloudy 44 6.7 36 2.2 73 73 W 5 7 30.02 1017 10 16 N/A
3:52 am 03:52 Cloudy 44 6.7 36 2.2 73 73 W 5 7 30.03 1017 10 16 N/A
4:52 am 04:52 Cloudy 44 6.7 37 2.8 76 76 W 3 6 30.04 1017 10 16 N/A
5:52 am 05:52 Cloudy 45 7.2 37 2.8 74 74 WNW 8 13 30.06 1018 10 16 N/A
6:52 am 06:52 Cloudy 45 7.2 38 3.3 77 77 WNW 5 7 30.09 1019 10 16 N/A
7:52 am 07:52 Cloudy 45 7.2 38 3.3 77 77 WNW 3 6 30.11 1020 10 16 N/A
8:52 am 08:52 Cloudy 45 7.2 38 3.3 77 77 NW 3 6 30.12 1020 10 16 N/A
9:52 am 09:52 Cloudy 46 7.8 39 3.9 77 77 NW 3 6 30.15 1021 10 16 N/A
10:52 am 10:52 Cloudy 47 8.3 39 3.9 74 74 N N/A 30.16 1021 10 16 N/A
11:52 am 11:52 Cloudy 49 9.4 37 2.8 64 64 N N/A 30.16 1022 10 16 N/A
12:52 pm 12:52 Cloudy 49 9.4 37 2.8 64 64 N N/A 30.19 1022 10 16 N/A
1:52 pm 13:52 Cloudy 49 9.4 37 2.8 64 64 N N/A 30.17 1022 10 16 N/A
2:52 pm 14:52 Cloudy 50 10 36 2.2 59 59 ESE 3 6 30.13 1020 10 16 N/A
2:59 pm 14:59 Cloudy 50 10 36 2 58 58 SE 3 6 30.18 1022 10 16 N/A
3:52 pm 15:52 Cloudy 50 10 36 2.2 59 59 SSW 5 7 30.15 1021 10 16 N/A
4:52 pm 16:52 Cloudy 50 10 37 2.8 61 61 S 3 6 30.15 1021 10 16 N/A
5:52 pm 17:52 Cloudy 49 9.4 37 2.8 64 64 N N/A 30.15 1021 10 16 N/A
6:52 pm 18:52 Cloudy 49 9.4 36 2.2 61 61 N N/A 30.13 1020 10 16 N/A
7:52 pm 19:52 Cloudy 48 8.9 37 2.8 66 66 ESE 6 9 30.12 1020 10 16 N/A
8:52 pm 20:52 Cloudy 48 8.9 36 2.2 63 63 ESE 7 11 30.12 1020 10 16 N/A
9:52 pm 21:52 Cloudy 48 8.9 36 2.2 63 63 ESE 8 13 30.12 1020 10 16 N/A
10:52 pm 22:52 Cloudy 46 7.8 37 2.8 71 71 S 6 9 30.15 1021 10 16 N/A
11:52 pm 23:52 Mostly Cloudy 45 7.2 38 3.3 77 77 S 6 9 30.15 1021 10 16 N/A

Powered by AerisWeather